Location: Navalmoral
(40.4603°N, 4.7686°W)
Time: 18:50:36
(UTC+00:00)

SPOT 5 - Pass Details

Date: 05 August 2024
Orbit: 619 x 808 km, 98.1° (Epoch: 19 September)

Event Time Altitude Azimuth Distance (km) Brightness Sun altitude
Exits shadow 20:09:06 - 129° (SE) 2,467 5.0 -7.7°
Reaches altitude 10° 20:09:22 10° 128° (SE) 2,376 4.9 -7.7°
Maximum altitude 20:13:56 31° 68° (ENE) 1,397 4.1 -8.5°
Drops below altitude 10° 20:18:33 10° 8° (N) 2,398 5.9 -9.2°
Sets 20:21:07 0° 358° (N) 3,324 6.8 -9.7°
